Home > Weather > Ulm > Past weeks

Flag for Germany Past Weather in Ulm, Baden-Württemberg, Germany — Yesterday and Last 2 Weeks

Now
57 °F

Sprinkles. Passing clouds.


Feels Like: 57 °F
Forecast: 51 / 71 °F
Wind: 5 mph from North

Location: Laupheim Airport

Current Time: Jun 27, 2016 at 12:45:28 AM

Latest Report: Jun 26, 2016 at 11:50 PM


Visibility: 5 mi

Pressure: 30.15 "Hg

Humidity: 88%

Dew Point: 54 °F

Location of UlmLocation

Past Weather in Ulm — Graph

°F

Ulm Temperature Yesterday

Maximum temperature yesterday: 66 °F (at 2:20 PM)
Minimum temperature yesterday: 57 °F (at 5:20 AM)
Average temperature yesterday: 61 °F

High & Low Weather Summary for the Past Weeks

 TemperatureHumidityPressure
High90 °F (Jun 23, 4:20 PM)100% (Jun 20, 2:20 AM)30.30 "Hg (Jun 20, 2:20 AM)
Low46 °F (Jun 20, 5:20 AM)31% (Jun 23, 4:20 PM)29.59 "Hg (Jun 14, 2:20 PM)
Average62 °F78%29.97 "Hg
* Reported Jun 11 11:20 PM — Jun 26 11:50 PM, Ulm, Weather by CustomWeather, © 2016

Note: Actual official high and low records may vary slightly from our data, if they occured in-between our weather recording intervals... More about our weather records

Advertising

Ulm Weather History for the Previous 24 Hours

Scroll right to see more
 ConditionsComfort  
Time TempWeatherWind HumidityBarometerVisibility
11:50 PM
Sun, Jun 26
57 °FSprinkles. Passing clouds.5 mph88%30.15 "Hg5 mi
11:20 PM59 °FPassing clouds.2 mph82%30.15 "HgN/A
10:20 PM61 °FPartly sunny.3 mph72%30.12 "HgN/A
9:20 PM61 °FScattered showers. Broken clouds.3 mph77%30.12 "HgN/A
8:20 PM63 °FBroken clouds.8 mph64%30.09 "HgN/A
7:20 PM63 °FPartly sunny.7 mph68%30.09 "HgN/A
6:20 PM64 °FPartly sunny.7 mph64%30.09 "HgN/A
5:20 PM64 °FPartly sunny.5 mph60%30.09 "HgN/A
4:20 PM66 °FBroken clouds.6 mph52%30.09 "HgN/A
3:20 PM66 °FBroken clouds.3 mph52%30.09 "HgN/A
2:20 PM66 °FPartly sunny.5 mph52%30.12 "HgN/A
1:20 PM64 °FPartly sunny.5 mph60%30.12 "HgN/A
12:20 PM63 °FPartly sunny.5 mph64%30.12 "HgN/A
11:20 AM61 °FPartly sunny.3 mph68%30.12 "HgN/A
10:20 AM61 °FPartly sunny.2 mph72%30.12 "HgN/A
9:20 AM59 °FBroken clouds.3 mph77%30.12 "HgN/A
8:20 AM59 °FBroken clouds.2 mph82%30.12 "HgN/A
7:20 AM57 °FBroken clouds.2 mph88%30.12 "HgN/A
6:20 AM57 °FPartly cloudy.3 mph88%30.09 "HgN/A
5:20 AM57 °FPassing clouds.7 mph94%30.09 "HgN/A
4:20 AM59 °FPartly cloudy.5 mph94%30.09 "HgN/A
3:20 AM59 °FPartly cloudy.5 mph94%30.09 "HgN/A
2:20 AM59 °FPartly cloudy.3 mph94%30.09 "HgN/A
1:20 AM59 °FPassing clouds.8 mph88%30.07 "HgN/A
12:20 AM63 °FPartly cloudy.3 mph77%30.09 "HgN/A
Weather by CustomWeather, © 2016

See weather overviewHow to use our weather pages